GW1296 Weather Reports


time (UTC)temp
C
wind
direction
speed
KPH
gust
KPH
rain 1hr
cm
rain 24hr
cm
rain mn
cm
humidity
%
barometer
mb
20260505200101 10 61 0.0 0.0 0.00 0.00 0.00 75 1017.4
20260505200040 10 0 0.0 0.0 0.00 0.00 0.00 74 1016.3
20260505194602 10 61 0.0 0.0 0.00 0.00 0.00 74 1017.5
20260505194541 10 0 0.0 0.0 0.00 0.00 0.00 73 1016.1
20260505193130 11 61 0.0 3.2 0.00 0.00 0.00 73 1017.2
20260505193046 11 0 0.0 3.2 0.00 0.00 0.00 72 1016.0
20260505191753 11 0 0.0 3.2 0.00 0.00 0.00 71 1015.9
20260505191606 11 61 0.0 1.6 0.00 0.00 0.00 71 1017.2
20260505190059 11 60 0.0 3.2 0.00 0.00 0.00 71 1017.1
20260505184602 11 57 0.0 3.2 0.00 0.00 0.00 70 1017.1
20260505183058 11 56 0.0 8.0 0.00 0.00 0.00 71 1017.1
20260505181557 12 93 3.2 8.0 0.00 0.00 0.00 69 1017.2
20260505180056 12 66 0.0 3.2 0.00 0.00 0.00 68 1017.1
20260505174556 12 111 0.0 3.2 0.00 0.00 0.00 68 1017.2
20260505174543 12 0 0.0 3.2 0.00 0.00 0.00 68 1016.0
20260505173054 12 128 0.0 4.8 0.00 0.00 0.00 68 1017.4
20260505173042 12 0 0.0 8.0 0.00 0.00 0.00 68 1016.1
20260505171554 12 58 0.0 8.0 0.00 0.00 0.00 68 1017.4
20260505171542 12 58 0.0 8.0 0.00 0.00 0.00 67 1016.0
20260505170054 13 125 1.6 6.4 0.00 0.00 0.00 67 1017.4
20260505170040 13 115 0.0 4.8 0.00 0.00 0.00 67 1016.0
20260505164549 12 24 0.0 4.8 0.00 0.00 0.00 70 1017.6
20260505164540 12 32 1.6 4.8 0.00 0.00 0.00 70 1016.2
20260505163048 11 76 1.6 6.4 0.00 0.00 0.00 71 1017.7
20260505163033 11 0 1.6 6.4 0.00 0.00 0.00 71 1016.3
20260505161547 11 117 0.0 6.4 0.00 0.00 0.00 73 1017.8
20260505161540 11 118 0.0 6.4 0.00 0.00 0.00 72 1016.4
20260505153048 11 135 1.6 6.4 0.00 0.00 0.00 73 1017.8
20260505153036 11 0 1.6 8.0 0.00 0.00 0.00 73 1016.5
20260505151544 11 65 4.8 9.7 0.00 0.00 0.00 75 1017.8
20260505151536 11 66 3.2 11.3 0.00 0.00 0.00 74 1016.5
20260505124536 11 69 1.6 14.5 0.00 0.00 0.00 72 1016.8
20260505124532 11 57 1.6 14.5 0.00 0.00 0.00 72 1017.8
20260505123049 11 15 3.2 11.3 0.00 0.00 0.00 71 1016.8
20260505123040 11 22 3.2 9.7 0.00 0.00 0.00 71 1018.0
20260505121535 11 60 1.6 9.7 0.00 0.00 0.00 74 1016.8
20260505121532 11 59 1.6 9.7 0.00 0.00 0.00 74 1018.0
20260505120048 10 95 1.6 6.4 0.00 0.00 0.00 79 1016.8
20260505120039 10 96 1.6 8.0 0.00 0.00 0.00 79 1018.0
20260505114551 10 86 1.6 6.4 0.00 0.00 0.00 80 1016.8
20260505114528 10 95 1.6 6.4 0.00 0.00 0.00 80 1018.0
20260505113128 10 61 1.6 8.0 0.00 0.00 0.00 80 1018.0
20260505113036 10 67 1.6 8.0 0.00 0.00 0.00 79 1016.9
20260505111533 11 1.6 8.0 0.00 0.00 0.00 79 1016.9
20260505101544 -17 0.0 0.0 0.00 0.00 0.00 1016.8
20260505101529 11 291 1.6 4.8 0.00 0.00 0.00 72 1018.0
20260505100035 11 286 3.2 6.4 0.00 0.00 0.00 71 1017.1
20260505100030 11 284 3.2 8.0 0.00 0.00 0.00 72 1018.1
20260505094540 -17 0.0 0.0 0.00 0.00 0.00 78 1017.1
20260505094521 11 350 1.6 9.7 0.00 0.00 0.00 78 1018.2
20260505093046 -17 0.0 0.0 0.00 0.00 0.00 1017.1
20260505093017 10 281 1.6 8.0 0.00 0.00 0.00 80 1018.2
20260505091544 10 286 3.2 8.0 0.00 0.00 0.00 81 1017.1
20260505091513 10 355 1.6 8.0 0.00 0.00 0.00 81 1018.3
20260505090048 10 295 3.2 11.3 0.00 0.00 0.00 81 1017.1
20260505090008 10 314 3.2 9.7 0.00 0.00 0.00 81 1018.2
20260505084535 10 315 0.0 9.7 0.00 0.00 0.00 82 1017.1
20260505084511 10 281 1.6 9.7 0.00 0.00 0.00 83 1018.2
20260505083043 10 267 0.0 6.4 0.00 0.00 0.00 83 1017.1
20260505083015 10 267 0.0 6.4 0.00 0.00 0.00 84 1018.3
20260505081546 10 265 1.6 9.7 0.00 0.00 0.00 84 1017.1
20260505081504 10 261 1.6 9.7 0.00 0.00 0.00 84 1018.3
20260505080107 9 286 0.0 8.0 0.00 0.00 0.00 85 1018.3
20260505080050 9 0 0.0 9.7 0.00 0.00 0.00 84 1017.1
20260505074558 9 274 1.6 6.4 0.00 0.00 0.00 85 1018.2
20260505074539 9 263 1.6 6.4 0.00 0.00 0.00 85 1017.1
20260505073100 9 263 1.6 9.7 0.00 0.00 0.00 86 1018.2
20260505073050 9 263 1.6 9.7 0.00 0.00 0.00 85 1017.1
20260505071607 8 259 1.6 8.0 0.00 0.00 0.00 86 1018.2
20260505071534 8 259 1.6 8.0 0.00 0.00 0.00 86 1017.1
20260505070052 8 256 1.6 9.7 0.00 0.00 0.00 86 1018.3
20260505070050 8 255 3.2 9.7 0.00 0.00 0.00 85 1017.1
20260505064546 8 245 1.6 6.4 0.00 0.00 0.00 87 1018.3
20260505064532 8 245 1.6 6.4 0.00 0.00 0.00 86 1017.1
20260505063050 8 241 1.6 6.4 0.00 0.00 0.00 87 1018.3
20260505063034 8 255 1.6 6.4 0.00 0.00 0.00 87 1017.0
20260505061539 8 248 0.0 6.4 0.00 0.00 0.00 88 1018.1
20260505061536 8 0 0.0 6.4 0.00 0.00 0.00 87 1017.0
20260505060053 8 250 3.2 8.0 0.00 0.00 0.00 87 1018.1
20260505060036 8 241 3.2 8.0 0.00 0.00 0.00 87 1016.9
20260505054534 8 217 1.6 11.3 0.00 0.00 0.00 87 1017.1
20260505054532 8 224 1.6 11.3 0.00 0.00 0.00 88 1018.2
20260505053040 8 246 3.2 9.7 0.00 0.00 0.00 87 1017.1
20260505053029 8 247 3.2 9.7 0.00 0.00 0.00 88 1018.2
20260505051536 8 256 3.2 8.0 0.00 0.00 0.00 87 1017.0
20260505051528 8 256 3.2 6.4 0.00 0.00 0.00 88 1018.2
20260505050117 8 259 3.2 9.7 0.00 0.00 0.00 87 1017.0
20260505041548 8 245 1.6 6.4 0.00 0.00 0.00 86 1016.9
20260505041523 8 245 1.6 6.4 0.00 0.00 0.00 87 1018.0
20260505040051 8 228 0.0 9.7 0.00 0.00 0.00 86 1017.0
20260505040024 8 228 0.0 8.0 0.00 0.00 0.00 87 1018.0
20260505034532 8 231 1.6 9.7 0.00 0.00 0.00 86 1016.9
20260505034521 8 236 1.6 9.7 0.00 0.00 0.00 87 1018.1
20260505033036 8 242 1.6 6.4 0.00 0.00 0.00 86 1017.0
20260505033020 8 242 1.6 6.4 0.00 0.00 0.00 86 1018.2
20260505031546 8 256 1.6 6.4 0.00 0.00 0.00 86 1017.0
20260505031518 8 256 1.6 6.4 0.00 0.00 0.00 86 1018.2
20260505030042 8 0 0.0 9.7 0.00 0.00 0.00 86 1017.0
20260505030017 8 255 0.0 9.7 0.00 0.00 0.00 87 1018.2
20260505024540 8 252 3.2 9.7 0.00 0.00 0.00 86 1017.1
20260505024518 8 253 3.2 9.7 0.00 0.00 0.00 87 1018.3
20260505023043 7 265 3.2 9.7 0.00 0.00 0.00 86 1017.0
20260505023015 7 265 3.2 8.0 0.00 0.00 0.00 87 1018.3
20260505021539 7 273 3.2 11.3 0.00 0.00 0.00 86 1017.1
20260505021515 7 263 3.2 11.3 0.00 0.00 0.00 86 1018.4
20260505020039 7 273 3.2 9.7 0.00 0.00 0.00 85 1017.2
20260505020014 7 266 3.2 9.7 0.00 0.00 0.00 86 1018.4
20260505014600 7 259 3.2 8.0 0.00 0.00 0.00 86 1017.2
20260505014527 7 244 3.2 8.0 0.00 0.00 0.00 86 1018.4
20260505013042 7 261 1.6 6.4 0.00 0.00 0.00 85 1017.3
20260505013013 7 261 1.6 6.4 0.00 0.00 0.00 86 1018.5
20260505011536 7 260 1.6 4.8 0.00 0.00 0.00 85 1017.3
20260505011510 7 260 1.6 4.8 0.00 0.00 0.00 86 1018.4
20260505010034 7 250 0.0 4.8 0.00 0.00 0.00 85 1017.3
20260505010007 7 250 1.6 4.8 0.00 0.00 0.00 86 1018.5
20260505004544 7 254 1.6 3.2 0.00 0.00 0.00 85 1017.4
20260505004508 7 254 1.6 3.2 0.00 0.00 0.00 86 1018.4
20260505003040 7 0 0.0 4.8 0.00 0.00 0.00 86 1017.3
20260505003004 7 259 0.0 4.8 0.00 0.00 0.00 86 1018.4
20260505001533 7 0 0.0 1.6 0.00 0.00 0.00 86 1017.3
20260505001503 7 272 0.0 1.6 0.00 0.00 0.00 86 1018.5
20260505000040 7 0 0.0 3.2 0.00 0.00 0.00 86 1017.4
20260505000002 7 272 0.0 3.2 0.00 0.00 0.00 86 1018.6
20260504234600 7 272 0.0 1.6 0.00 0.00 0.00 86 1018.5
20260504234541 7 0 0.0 1.6 0.00 0.00 0.00 85 1017.4
20260504233201 8 272 0.0 1.6 0.00 0.00 0.00 85 1018.5
20260504233040 8 0 0.0 1.6 0.00 0.00 0.00 84 1017.3
20260504231555 8 272 0.0 4.8 0.00 0.00 0.00 85 1018.3
20260504231531 8 0 0.0 4.8 0.00 0.00 0.00 85 1017.2
20260504230052 8 323 0.0 3.2 0.00 0.00 0.00 87 1018.3
20260504230039 8 0 0.0 3.2 0.00 0.00 0.00 87 1017.2
20260504224551 8 17 0.0 3.2 0.00 0.00 0.00 89 1018.4
20260504224548 8 17 0.0 3.2 0.00 0.00 0.00 89 1017.2
20260504223102 8 34 0.0 0.0 0.00 0.00 0.00 90 1018.4
20260504223038 8 0 0.0 3.2 0.00 0.00 0.00 89 1017.2
20260504221551 8 34 0.0 1.6 0.00 0.00 0.00 90 1018.3
20260504221536 8 0 0.0 1.6 0.00 0.00 0.00 90 1017.3
20260504220049 8 34 0.0 1.6 0.00 0.00 0.00 90 1018.5
20260504220040 8 0 0.0 0.0 0.00 0.00 0.00 90 1017.3
20260504214547 8 34 0.0 0.0 0.00 0.00 0.00 89 1018.4
20260504214540 8 0 0.0 0.0 0.00 0.00 0.00 88 1017.3
20260504213055 8 0 0.0 0.0 0.00 0.00 0.00 88 1017.3
20260504213046 8 34 0.0 0.0 0.00 0.00 0.00 88 1018.3
20260504211618 9 34 0.0 0.0 0.00 0.00 0.00 87 1018.2
20260504211537 9 0 0.0 0.0 0.00 0.00 0.00 87 1017.2
20260504210046 9 34 0.0 0.0 0.00 0.00 0.00 87 1018.3
20260504210033 9 0 0.0 0.0 0.00 0.00 0.00 86 1017.4
20260504204539 10 34 0.0 0.0 0.00 0.00 0.00 86 1018.3
20260504204534 10 0 0.0 0.0 0.00 0.00 0.00 85 1017.4
20260504203040 10 0 0.0 0.0 0.00 0.00 0.00 83 1017.3
20260504203038 10 34 0.0 0.0 0.00 0.00 0.00 84 1018.3
20260504201540 11 0 0.0 0.0 0.00 0.00 0.00 83 1017.2
20260504201538 11 34 0.0 0.0 0.00 0.00 0.00 83 1018.3